{"data":{"norad_id":67548,"intl_designator":"2026-014S","name":"STARLINK-36586","alt_names":[],"object_type":"PAYLOAD","status":"ACTIVE","operator":null,"country":"US","launch_date":"2026-01-22","launch_site_code":"AFWTR","launch_vehicle":null,"mission":null,"orbit_class":"UNKNOWN","rcs_meters":null,"size_class":null,"mass_kg":null,"dimensions":null,"purposes":["comms"],"wikipedia_slug":null,"has_3d_model":false,"image_url":null,"decayed_at":null,"tle_current":{"epoch":"2026-05-25T03:15:30.261024Z","epoch_age_seconds":57270,"freshness":"FRESH","line1":"1 67548U 26014S   26145.13576691  .00023488  00000+0  72733-3 0  9998","line2":"2 67548  97.2875  32.2549 0001152  94.4476 265.6899 15.33456697 20509","mean_motion":15.33456697,"eccentricity":0.0001152,"inclination_deg":97.2875,"raan_deg":32.2549,"arg_perigee_deg":94.4476,"mean_anomaly_deg":265.6899,"bstar":0.00072733,"rev_number":2050,"period_min":93.905488353024,"perigee_km":464.71998470996,"apogee_km":466.29676060382,"semimajor_km":6843.6453726569,"source":"CELESTRAK","updated_at":"2026-05-25T13:38:21.610097Z"}}}